User: anonymous   Login
Location: Unspecified
(0.0000°N, 0.0000°E)
Time: 23:31:00
(UTC+00:00)
Language:

STARLINK-30933 - Orbit

View from above orbital plane
View from above orbital plane
View from above satellite
View from above satellite

Ground track
Ground track

The orbit is defined by the following mean orbital elements,

1 58410U          26145.41299819 +.00000000 +00000-0 +58648-4 0 00007
2 58410  43.0009 193.4517 0001284 268.9024  91.1681 15.27584721    00
Epoch (UTC): 25 May 2026 09:54:43
Eccentricity: 0.0001284
inclination: 43.0009°
perigee height: 482 km
apogee height: 484 km
right ascension of ascending node: 193.4517°
argument of perigee: 268.9024°
revolutions per day: 15.27584721
mean anomaly at epoch: 91.1681°

The dashed part of the orbit path shows where the satellite is in the earth's shadow,  

DLR